| time (UTC) | temp F | wind direction | speed knots | gust knots | rain 1hr in | rain 24hr in | rain mn in | humidity % | barometer mb |
| 20260509011518 | 74 | 94 | 0.0 | 0.0 | 0.00 | 0.00 | 0.00 | 90 | 1009.7 |
| 20260509011003 | 74 | 95 | 0.0 | 0.0 | 0.00 | 0.00 | 0.00 | 90 | 1009.7 |
| 20260509010503 | 74 | 75 | 0.0 | 0.0 | 0.00 | 0.00 | 0.00 | 90 | 1009.7 |
| 20260509010024 | 74 | 75 | 0.0 | 0.0 | 0.00 | 0.00 | 0.00 | 90 | 1009.6 |
| 20260509005505 | 74 | 75 | 0.0 | 0.0 | 0.00 | 0.00 | 0.00 | 90 | 1009.6 |
| 20260509005006 | 74 | 85 | 0.0 | 0.0 | 0.00 | 0.00 | 0.00 | 90 | 1009.5 |
| 20260509004531 | 74 | 80 | 0.0 | 0.0 | 0.00 | 0.00 | 0.00 | 89 | 1009.3 |
| 20260509004006 | 74 | 84 | 0.0 | 0.0 | 0.00 | 0.00 | 0.00 | 89 | 1009.3 |
| 20260509003507 | 74 | 81 | 0.0 | 0.0 | 0.00 | 0.00 | 0.00 | 89 | 1009.3 |
| 20260509003017 | 74 | 87 | 0.0 | 0.0 | 0.00 | 0.00 | 0.00 | 89 | 1009.2 |
| 20260509002503 | 75 | 72 | 0.0 | 0.9 | 0.00 | 0.00 | 0.00 | 88 | 1009.4 |
| 20260509002006 | 75 | 78 | 0.0 | 0.9 | 0.00 | 0.00 | 0.00 | 88 | 1009.4 |
| 20260509001518 | 75 | 76 | 0.0 | 0.9 | 0.00 | 0.00 | 0.00 | 88 | 1009.6 |
| 20260509001007 | 75 | 83 | 0.0 | 0.9 | 0.00 | 0.00 | 0.00 | 88 | 1009.8 |
| 20260509000509 | 75 | 83 | 0.0 | 0.9 | 0.00 | 0.00 | 0.00 | 88 | 1009.7 |
| 20260509000019 | 75 | 83 | 0.0 | 0.9 | 0.00 | 0.00 | 0.00 | 87 | 1009.7 |
| 20260508235508 | 75 | 84 | 0.0 | 0.9 | 0.00 | 0.00 | 0.00 | 87 | 1009.7 |
| 20260508235004 | 76 | 255 | 0.0 | 1.7 | 0.00 | 0.00 | 0.00 | 87 | 1009.8 |
| 20260508234521 | 76 | 76 | 0.0 | 1.7 | 0.00 | 0.00 | 0.00 | 86 | 1009.8 |
| 20260508234007 | 76 | 74 | 0.0 | 0.9 | 0.00 | 0.00 | 0.00 | 86 | 1009.8 |
| 20260508233504 | 76 | 75 | 0.0 | 0.9 | 0.00 | 0.00 | 0.00 | 86 | 1009.8 |
| 20260508233021 | 76 | 75 | 0.0 | 0.9 | 0.00 | 0.00 | 0.00 | 86 | 1009.7 |
| 20260508232506 | 76 | 75 | 0.0 | 0.9 | 0.00 | 0.00 | 0.00 | 85 | 1009.7 |
| 20260508232009 | 76 | 78 | 0.0 | 0.9 | 0.00 | 0.00 | 0.00 | 86 | 1009.7 |
| 20260508231521 | 76 | 77 | 0.0 | 0.9 | 0.00 | 0.00 | 0.00 | 86 | 1009.7 |
| 20260508231005 | 76 | 77 | 0.0 | 0.9 | 0.00 | 0.00 | 0.00 | 85 | 1009.7 |
| 20260508230508 | 77 | 78 | 0.0 | 0.9 | 0.00 | 0.00 | 0.00 | 85 | 1009.7 |
| 20260508230019 | 77 | 77 | 0.0 | 0.9 | 0.00 | 0.00 | 0.00 | 85 | 1009.7 |
| 20260508225512 | 77 | 77 | 0.0 | 1.7 | 0.00 | 0.00 | 0.00 | 85 | 1009.7 |
| 20260508225011 | 77 | 77 | 0.0 | 2.6 | 0.00 | 0.00 | 0.00 | 84 | 1009.7 |
| 20260508224527 | 77 | 76 | 0.9 | 2.6 | 0.00 | 0.00 | 0.00 | 83 | 1009.5 |
| 20260508224008 | 77 | 94 | 0.0 | 1.7 | 0.00 | 0.00 | 0.00 | 84 | 1009.5 |
| 20260508223508 | 77 | 89 | 0.0 | 0.9 | 0.00 | 0.00 | 0.00 | 83 | 1009.5 |
| 20260508223035 | 78 | 89 | 0.0 | 0.9 | 0.00 | 0.00 | 0.00 | 83 | 1009.6 |
| 20260508222507 | 78 | 89 | 0.0 | 0.9 | 0.00 | 0.00 | 0.00 | 83 | 1009.5 |
| 20260508222011 | 78 | 89 | 0.0 | 1.7 | 0.00 | 0.00 | 0.00 | 82 | 1009.5 |
| 20260508221524 | 78 | 94 | 0.0 | 1.7 | 0.00 | 0.00 | 0.00 | 82 | 1009.7 |
| 20260508221010 | 78 | 85 | 0.0 | 0.9 | 0.00 | 0.00 | 0.00 | 83 | 1009.7 |
| 20260508220507 | 78 | 83 | 0.0 | 0.9 | 0.00 | 0.00 | 0.00 | 83 | 1009.7 |
| 20260508220027 | 78 | 158 | 0.0 | 0.9 | 0.00 | 0.00 | 0.00 | 83 | 1009.7 |
| 20260508215508 | 78 | 226 | 0.0 | 0.0 | 0.00 | 0.00 | 0.00 | 83 | 1009.7 |
| 20260508215010 | 78 | 226 | 0.0 | 0.9 | 0.00 | 0.00 | 0.00 | 82 | 1009.9 |
| 20260508214522 | 78 | 226 | 0.0 | 0.9 | 0.00 | 0.00 | 0.00 | 82 | 1009.9 |
| 20260508214008 | 78 | 226 | 0.0 | 0.9 | 0.00 | 0.00 | 0.00 | 82 | 1010.1 |
| 20260508213506 | 78 | 77 | 0.0 | 0.9 | 0.00 | 0.00 | 0.00 | 82 | 1009.9 |
| 20260508213024 | 78 | 76 | 0.0 | 0.9 | 0.00 | 0.00 | 0.00 | 82 | 1009.9 |
| 20260508212505 | 79 | 79 | 0.0 | 0.9 | 0.00 | 0.00 | 0.00 | 81 | 1010.1 |
| 20260508212009 | 79 | 79 | 0.0 | 0.9 | 0.00 | 0.00 | 0.00 | 81 | 1010.2 |
| 20260508211517 | 78 | 79 | 0.0 | 1.7 | 0.00 | 0.00 | 0.00 | 81 | 1010.2 |
| 20260508211005 | 79 | 76 | 0.0 | 1.7 | 0.00 | 0.00 | 0.00 | 80 | 1010.1 |
| 20260508210507 | 79 | 99 | 0.0 | 1.7 | 0.00 | 0.00 | 0.00 | 80 | 1010.1 |
| 20260508210017 | 79 | 76 | 0.0 | 2.6 | 0.00 | 0.00 | 0.00 | 81 | 1010.0 |
| 20260508205507 | 78 | 41 | 0.9 | 2.6 | 0.00 | 0.00 | 0.00 | 82 | 1010.2 |
| 20260508205007 | 79 | 199 | 0.0 | 0.9 | 0.00 | 0.00 | 0.00 | 80 | 1010.4 |
| 20260508204518 | 78 | 199 | 0.0 | 0.9 | 0.00 | 0.00 | 0.00 | 81 | 1010.5 |
| 20260508204006 | 78 | 199 | 0.0 | 0.9 | 0.00 | 0.00 | 0.00 | 81 | 1010.5 |
| 20260508203507 | 78 | 251 | 0.0 | 0.9 | 0.00 | 0.00 | 0.00 | 80 | 1010.7 |
| 20260508203025 | 78 | 80 | 0.0 | 0.9 | 0.00 | 0.00 | 0.00 | 81 | 1010.6 |
| 20260508202505 | 78 | 247 | 0.0 | 0.9 | 0.00 | 0.00 | 0.00 | 83 | 1010.6 |
| 20260508202005 | 77 | 248 | 0.0 | 0.9 | 0.00 | 0.00 | 0.00 | 83 | 1010.7 |
| 20260508201516 | 77 | 240 | 0.0 | 0.9 | 0.00 | 0.00 | 0.00 | 83 | 1010.8 |
| 20260508201005 | 77 | 240 | 0.0 | 1.7 | 0.00 | 0.00 | 0.00 | 83 | 1010.9 |
| 20260508200507 | 76 | 255 | 0.0 | 1.7 | 0.00 | 0.00 | 0.00 | 84 | 1010.8 |
| 20260508200020 | 76 | 120 | 0.0 | 0.9 | 0.00 | 0.00 | 0.00 | 84 | 1010.8 |
| 20260508195508 | 76 | 88 | 0.0 | 0.9 | 0.00 | 0.00 | 0.00 | 84 | 1011.0 |
| 20260508195006 | 76 | 89 | 0.0 | 0.9 | 0.00 | 0.00 | 0.00 | 84 | 1011.0 |
| 20260508194520 | 76 | 89 | 0.0 | 0.9 | 0.00 | 0.00 | 0.00 | 84 | 1011.1 |
| 20260508194006 | 76 | 73 | 0.0 | 0.9 | 0.00 | 0.00 | 0.00 | 84 | 1011.2 |
| 20260508193503 | 76 | 72 | 0.0 | 1.7 | 0.00 | 0.00 | 0.00 | 85 | 1011.1 |
| 20260508193024 | 76 | 73 | 0.0 | 1.7 | 0.00 | 0.00 | 0.00 | 83 | 1011.1 |
| 20260508192507 | 76 | 81 | 0.0 | 0.9 | 0.00 | 0.00 | 0.00 | 83 | 1011.3 |
| 20260508192008 | 76 | 80 | 0.0 | 0.9 | 0.00 | 0.00 | 0.00 | 83 | 1011.4 |
| 20260508191534 | 76 | 95 | 0.0 | 1.7 | 0.00 | 0.00 | 0.00 | 83 | 1011.4 |
| 20260508191007 | 76 | 94 | 0.0 | 1.7 | 0.00 | 0.00 | 0.00 | 83 | 1011.4 |
| 20260508190505 | 75 | 123 | 0.0 | 0.9 | 0.00 | 0.00 | 0.00 | 84 | 1011.5 |
| 20260508190030 | 75 | 73 | 0.0 | 1.7 | 0.00 | 0.00 | 0.00 | 84 | 1011.5 |
| 20260508185506 | 75 | 72 | 0.0 | 1.7 | 0.00 | 0.00 | 0.00 | 84 | 1011.4 |
| 20260508185007 | 75 | 77 | 0.9 | 1.7 | 0.00 | 0.00 | 0.00 | 83 | 1011.5 |
| 20260508184524 | 76 | 74 | 0.9 | 1.7 | 0.00 | 0.00 | 0.00 | 82 | 1011.4 |
| 20260508184007 | 76 | 52 | 0.0 | 0.9 | 0.00 | 0.00 | 0.00 | 83 | 1011.5 |
| 20260508183506 | 75 | 88 | 0.0 | 1.7 | 0.00 | 0.00 | 0.00 | 83 | 1011.7 |
| 20260508183027 | 76 | 49 | 0.9 | 1.7 | 0.00 | 0.00 | 0.00 | 82 | 1011.8 |
| 20260508182508 | 75 | 258 | 0.0 | 1.7 | 0.00 | 0.00 | 0.00 | 84 | 1011.8 |
| 20260508182007 | 75 | 72 | 0.0 | 1.7 | 0.00 | 0.00 | 0.00 | 83 | 1011.7 |
| 20260508181515 | 74 | 51 | 0.9 | 1.7 | 0.00 | 0.00 | 0.00 | 84 | 1011.6 |
| 20260508181005 | 73 | 94 | 0.0 | 1.7 | 0.00 | 0.00 | 0.00 | 84 | 1011.6 |
| 20260508180509 | 73 | 81 | 0.0 | 1.7 | 0.00 | 0.00 | 0.00 | 84 | 1012.0 |
| 20260508180016 | 73 | 160 | 0.0 | 0.0 | 0.00 | 0.00 | 0.00 | 84 | 1011.9 |
| 20260508175503 | 73 | 162 | 0.0 | 0.0 | 0.00 | 0.00 | 0.00 | 85 | 1012.0 |
| 20260508175007 | 73 | 162 | 0.0 | 0.9 | 0.00 | 0.00 | 0.00 | 84 | 1012.2 |
| 20260508174510 | 73 | 181 | 0.0 | 0.9 | 0.00 | 0.00 | 0.00 | 84 | 1012.5 |
| 20260508174002 | 73 | 200 | 0.0 | 0.9 | 0.00 | 0.00 | 0.00 | 84 | 1012.6 |
| 20260508173508 | 73 | 70 | 0.0 | 0.9 | 0.00 | 0.00 | 0.00 | 84 | 1012.7 |
| 20260508173008 | 72 | 69 | 0.0 | 0.9 | 0.00 | 0.00 | 0.00 | 85 | 1012.6 |
| 20260508172506 | 72 | 68 | 0.0 | 0.9 | 0.00 | 0.00 | 0.00 | 84 | 1012.8 |
| 20260508172008 | 72 | 68 | 0.0 | 0.9 | 0.00 | 0.00 | 0.00 | 84 | 1012.8 |
| 20260508171508 | 72 | 68 | 0.0 | 1.7 | 0.00 | 0.00 | 0.00 | 84 | 1012.8 |
| 20260508171007 | 72 | 72 | 0.0 | 1.7 | 0.00 | 0.00 | 0.00 | 84 | 1012.7 |
| 20260508170502 | 72 | 72 | 0.0 | 1.7 | 0.00 | 0.00 | 0.00 | 83 | 1012.5 |
| 20260508170008 | 73 | 63 | 0.0 | 1.7 | 0.00 | 0.00 | 0.00 | 83 | 1012.5 |
| 20260508165507 | 72 | 59 | 0.0 | 1.7 | 0.00 | 0.00 | 0.00 | 84 | 1012.7 |
| 20260508165004 | 72 | 105 | 0.0 | 1.7 | 0.00 | 0.00 | 0.00 | 84 | 1012.8 |
| 20260508164523 | 72 | 71 | 0.0 | 1.7 | 0.00 | 0.00 | 0.00 | 85 | 1012.8 |
| 20260508164006 | 71 | 71 | 0.0 | 1.7 | 0.00 | 0.00 | 0.00 | 84 | 1012.9 |
| 20260508163502 | 71 | 92 | 0.9 | 1.7 | 0.00 | 0.00 | 0.00 | 84 | 1012.9 |
| 20260508163022 | 71 | 70 | 0.9 | 1.7 | 0.00 | 0.00 | 0.00 | 84 | 1013.1 |
| 20260508162503 | 71 | 84 | 0.0 | 1.7 | 0.00 | 0.00 | 0.00 | 84 | 1013.1 |
| 20260508162004 | 71 | 76 | 0.9 | 1.7 | 0.00 | 0.00 | 0.00 | 85 | 1013.1 |
| 20260508161518 | 71 | 76 | 0.0 | 1.7 | 0.00 | 0.00 | 0.00 | 85 | 1013.1 |
| 20260508161003 | 71 | 82 | 0.0 | 1.7 | 0.00 | 0.00 | 0.00 | 85 | 1013.1 |
| 20260508160506 | 70 | 77 | 0.9 | 1.7 | 0.00 | 0.00 | 0.00 | 84 | 1012.9 |
| 20260508160016 | 70 | 91 | 0.0 | 0.9 | 0.00 | 0.00 | 0.00 | 85 | 1013.0 |
| 20260508155502 | 70 | 91 | 0.0 | 1.7 | 0.00 | 0.00 | 0.00 | 85 | 1013.1 |
| 20260508155008 | 70 | 86 | 0.0 | 1.7 | 0.00 | 0.00 | 0.00 | 85 | 1013.2 |
| 20260508154514 | 70 | 78 | 0.0 | 1.7 | 0.00 | 0.00 | 0.00 | 85 | 1013.3 |
| 20260508154007 | 69 | 73 | 0.9 | 1.7 | 0.00 | 0.00 | 0.00 | 85 | 1013.4 |
| 20260508153506 | 69 | 80 | 0.9 | 1.7 | 0.00 | 0.00 | 0.00 | 86 | 1013.6 |
| 20260508153010 | 69 | 56 | 0.0 | 1.7 | 0.00 | 0.00 | 0.00 | 86 | 1013.6 |
| 20260508152507 | 68 | 81 | 0.0 | 1.7 | 0.00 | 0.00 | 0.00 | 88 | 1013.7 |
| 20260508152007 | 68 | 78 | 0.0 | 0.9 | 0.00 | 0.00 | 0.00 | 88 | 1013.8 |
| 20260508151526 | 68 | 90 | 0.0 | 1.7 | 0.00 | 0.00 | 0.00 | 87 | 1013.7 |
| 20260508151010 | 67 | 93 | 0.0 | 1.7 | 0.00 | 0.00 | 0.00 | 88 | 1013.7 |
| 20260508150507 | 67 | 70 | 0.0 | 1.7 | 0.00 | 0.00 | 0.00 | 87 | 1013.8 |
| 20260508150026 | 67 | 98 | 0.0 | 1.7 | 0.00 | 0.00 | 0.00 | 87 | 1013.9 |
| 20260508145508 | 67 | 72 | 0.0 | 1.7 | 0.00 | 0.00 | 0.00 | 87 | 1013.9 |
| 20260508145012 | 67 | 92 | 0.0 | 1.7 | 0.00 | 0.00 | 0.00 | 88 | 1013.9 |
| 20260508144522 | 67 | 86 | 0.0 | 2.6 | 0.00 | 0.00 | 0.00 | 89 | 1013.9 |
| 20260508144008 | 67 | 89 | 0.9 | 2.6 | 0.00 | 0.00 | 0.00 | 88 | 1013.9 |
| 20260508143518 | 67 | 120 | 0.0 | 0.9 | 0.00 | 0.00 | 0.00 | 89 | 1014.0 |
| 20260508143021 | 66 | 61 | 0.0 | 0.9 | 0.00 | 0.00 | 0.00 | 90 | 1013.9 |
| 20260508142510 | 66 | 60 | 0.0 | 0.9 | 0.00 | 0.00 | 0.00 | 90 | 1014.0 |
| 20260508142011 | 66 | 218 | 0.0 | 0.9 | 0.00 | 0.00 | 0.00 | 89 | 1014.2 |
| 20260508141519 | 66 | 67 | 0.0 | 0.9 | 0.00 | 0.00 | 0.00 | 89 | 1014.1 |
| 20260508141010 | 66 | 344 | 0.0 | 0.0 | 0.00 | 0.00 | 0.00 | 89 | 1014.0 |
| 20260508140509 | 66 | 305 | 0.0 | 0.0 | 0.00 | 0.00 | 0.00 | 89 | 1014.0 |
| 20260508140027 | 66 | 350 | 0.0 | 2.6 | 0.00 | 0.00 | 0.00 | 89 | 1014.0 |
| 20260508135511 | 66 | 349 | 0.0 | 2.6 | 0.00 | 0.00 | 0.00 | 89 | 1014.0 |
| 20260508135007 | 66 | 339 | 0.0 | 1.7 | 0.00 | 0.00 | 0.00 | 89 | 1014.0 |
| 20260508134529 | 66 | 313 | 0.0 | 1.7 | 0.00 | 0.00 | 0.00 | 89 | 1013.9 |
| 20260508134008 | 66 | 340 | 0.0 | 0.9 | 0.00 | 0.00 | 0.00 | 89 | 1014.0 |
| 20260508133507 | 66 | 269 | 0.0 | 0.9 | 0.00 | 0.00 | 0.00 | 89 | 1014.0 |
| 20260508133028 | 66 | 259 | 0.0 | 0.9 | 0.00 | 0.00 | 0.00 | 89 | 1013.9 |
| 20260508132508 | 66 | 259 | 0.0 | 0.9 | 0.00 | 0.00 | 0.00 | 90 | 1013.8 |
| 20260508132010 | 66 | 259 | 0.0 | 0.0 | 0.00 | 0.00 | 0.00 | 90 | 1013.7 |
| 20260508131531 | 65 | 142 | 0.0 | 0.0 | 0.00 | 0.00 | 0.00 | 90 | 1013.5 |
| 20260508131009 | 65 | 142 | 0.0 | 0.0 | 0.00 | 0.00 | 0.00 | 91 | 1013.6 |
| 20260508130514 | 65 | 142 | 0.0 | 0.9 | 0.00 | 0.00 | 0.00 | 91 | 1013.5 |
| 20260508130026 | 65 | 142 | 0.0 | 0.9 | 0.00 | 0.00 | 0.00 | 91 | 1013.4 |
| 20260508125507 | 65 | 94 | 0.0 | 0.0 | 0.00 | 0.00 | 0.00 | 91 | 1013.5 |
| 20260508125007 | 65 | 94 | 0.0 | 0.0 | 0.00 | 0.00 | 0.00 | 91 | 1013.4 |
| 20260508124525 | 64 | 95 | 0.0 | 0.9 | 0.00 | 0.00 | 0.00 | 91 | 1013.2 |
| 20260508124010 | 65 | 95 | 0.0 | 0.9 | 0.00 | 0.00 | 0.00 | 90 | 1013.1 |
| 20260508123509 | 65 | 87 | 0.0 | 0.9 | 0.00 | 0.00 | 0.00 | 90 | 1013.4 |
| 20260508123022 | 65 | 86 | 0.0 | 0.0 | 0.00 | 0.00 | 0.00 | 90 | 1013.7 |
| 20260508122508 | 65 | 86 | 0.0 | 0.0 | 0.00 | 0.00 | 0.00 | 90 | 1014.0 |
| 20260508122010 | 65 | 86 | 0.0 | 0.0 | 0.00 | 0.00 | 0.00 | 89 | 1014.0 |
| 20260508121522 | 65 | 86 | 0.0 | 0.0 | 0.00 | 0.00 | 0.00 | 89 | 1013.7 |
| 20260508121005 | 65 | 86 | 0.0 | 0.0 | 0.00 | 0.00 | 0.00 | 88 | 1013.5 |
| 20260508120503 | 65 | 86 | 0.0 | 0.9 | 0.00 | 0.00 | 0.00 | 88 | 1013.4 |
| 20260508120031 | 65 | 86 | 0.0 | 0.9 | 0.00 | 0.00 | 0.00 | 87 | 1013.4 |
| 20260508115504 | 65 | 87 | 0.0 | 0.9 | 0.00 | 0.00 | 0.00 | 87 | 1013.6 |
| 20260508115007 | 65 | 281 | 0.0 | 0.0 | 0.00 | 0.00 | 0.00 | 87 | 1013.5 |
| 20260508114514 | 66 | 281 | 0.0 | 0.9 | 0.00 | 0.00 | 0.00 | 87 | 1013.5 |
| 20260508114003 | 66 | 281 | 0.0 | 0.9 | 0.00 | 0.00 | 0.00 | 87 | 1013.5 |
| 20260508113508 | 66 | 281 | 0.0 | 0.9 | 0.00 | 0.00 | 0.00 | 86 | 1013.6 |
| 20260508113014 | 66 | 280 | 0.0 | 0.0 | 0.00 | 0.00 | 0.00 | 86 | 1013.7 |
| 20260508112513 | 66 | 281 | 0.0 | 0.0 | 0.00 | 0.00 | 0.00 | 86 | 1013.8 |
| 20260508112007 | 66 | 281 | 0.0 | 0.0 | 0.00 | 0.00 | 0.00 | 86 | 1013.8 |
| 20260508111509 | 66 | 280 | 0.0 | 0.0 | 0.00 | 0.00 | 0.00 | 86 | 1013.5 |
| 20260508111014 | 66 | 280 | 0.0 | 0.9 | 0.00 | 0.00 | 0.00 | 86 | 1013.7 |
| 20260508110507 | 66 | 303 | 0.0 | 0.9 | 0.00 | 0.00 | 0.00 | 86 | 1013.7 |
| 20260508110025 | 66 | 159 | 0.0 | 0.0 | 0.00 | 0.00 | 0.00 | 86 | 1013.5 |
| 20260508105509 | 66 | 159 | 0.0 | 0.0 | 0.00 | 0.00 | 0.00 | 86 | 1013.4 |
| 20260508105010 | 66 | 159 | 0.0 | 0.0 | 0.00 | 0.00 | 0.00 | 86 | 1013.2 |
| 20260508104526 | 66 | 119 | 0.0 | 0.0 | 0.00 | 0.00 | 0.00 | 86 | 1013.3 |
| 20260508104006 | 66 | 119 | 0.0 | 0.9 | 0.00 | 0.00 | 0.00 | 85 | 1013.3 |
| 20260508103505 | 66 | 119 | 0.0 | 0.9 | 0.00 | 0.00 | 0.00 | 85 | 1013.1 |
| 20260508103026 | 66 | 146 | 0.0 | 0.9 | 0.00 | 0.00 | 0.00 | 85 | 1013.4 |
| 20260508102506 | 66 | 86 | 0.0 | 0.9 | 0.00 | 0.00 | 0.00 | 85 | 1013.3 |
| 20260508102005 | 66 | 86 | 0.0 | 0.9 | 0.00 | 0.00 | 0.00 | 85 | 1013.4 |
| 20260508101521 | 66 | 352 | 0.0 | 0.0 | 0.00 | 0.00 | 0.00 | 85 | 1013.7 |
| 20260508101003 | 66 | 350 | 0.0 | 0.0 | 0.00 | 0.00 | 0.00 | 85 | 1013.8 |
| 20260508100506 | 66 | 351 | 0.0 | 0.0 | 0.00 | 0.00 | 0.00 | 85 | 1013.8 |
| 20260508100018 | 66 | 350 | 0.0 | 0.0 | 0.00 | 0.00 | 0.00 | 85 | 1013.8 |
| 20260508095504 | 66 | 350 | 0.0 | 0.0 | 0.00 | 0.00 | 0.00 | 85 | 1013.9 |
| 20260508095012 | 66 | 350 | 0.0 | 0.9 | 0.00 | 0.00 | 0.00 | 85 | 1013.9 |
| 20260508094515 | 66 | 350 | 0.0 | 0.9 | 0.00 | 0.00 | 0.00 | 85 | 1013.5 |
| 20260508094010 | 66 | 71 | 0.0 | 0.9 | 0.00 | 0.00 | 0.00 | 84 | 1013.0 |
| 20260508093506 | 66 | 72 | 0.0 | 0.0 | 0.00 | 0.00 | 0.00 | 84 | 1013.2 |
| 20260508093015 | 66 | 339 | 0.0 | 0.0 | 0.00 | 0.00 | 0.00 | 84 | 1013.4 |
| 20260508092509 | 66 | 339 | 0.0 | 0.0 | 0.00 | 0.00 | 0.00 | 84 | 1013.5 |
| 20260508092007 | 66 | 339 | 0.0 | 0.0 | 0.00 | 0.00 | 0.00 | 84 | 1013.4 |
| 20260508091512 | 66 | 339 | 0.0 | 0.0 | 0.00 | 0.00 | 0.00 | 84 | 1013.3 |
| 20260508091008 | 66 | 340 | 0.0 | 0.0 | 0.00 | 0.00 | 0.00 | 84 | 1013.2 |
| 20260508090506 | 66 | 340 | 0.0 | 0.0 | 0.00 | 0.00 | 0.00 | 83 | 1013.2 |
| 20260508090024 | 66 | 340 | 0.0 | 0.0 | 0.00 | 0.00 | 0.00 | 83 | 1013.1 |
| 20260508085510 | 66 | 340 | 0.0 | 0.0 | 0.00 | 0.00 | 0.00 | 83 | 1013.1 |
| 20260508085004 | 66 | 337 | 0.0 | 0.0 | 0.00 | 0.00 | 0.00 | 83 | 1013.2 |
| 20260508084526 | 66 | 336 | 0.0 | 0.0 | 0.00 | 0.00 | 0.00 | 84 | 1013.4 |
| 20260508084007 | 66 | 337 | 0.0 | 0.0 | 0.00 | 0.00 | 0.00 | 84 | 1013.4 |
| 20260508083502 | 66 | 336 | 0.0 | 0.0 | 0.00 | 0.00 | 0.00 | 83 | 1013.4 |
| 20260508083028 | 66 | 337 | 0.0 | 0.0 | 0.00 | 0.00 | 0.00 | 83 | 1013.5 |
| 20260508082507 | 66 | 337 | 0.0 | 0.0 | 0.00 | 0.00 | 0.00 | 83 | 1013.4 |
| 20260508082008 | 66 | 336 | 0.0 | 0.0 | 0.00 | 0.00 | 0.00 | 84 | 1013.5 |
| 20260508081524 | 66 | 336 | 0.0 | 0.0 | 0.00 | 0.00 | 0.00 | 83 | 1013.6 |
| 20260508081007 | 66 | 337 | 0.0 | 0.0 | 0.00 | 0.00 | 0.00 | 83 | 1013.4 |
| 20260508080509 | 66 | 337 | 0.0 | 0.0 | 0.00 | 0.00 | 0.00 | 83 | 1013.4 |
| 20260508080022 | 66 | 336 | 0.0 | 0.0 | 0.00 | 0.00 | 0.00 | 84 | 1013.5 |
| 20260508075503 | 66 | 337 | 0.0 | 0.0 | 0.00 | 0.00 | 0.00 | 83 | 1013.5 |
| 20260508075006 | 66 | 337 | 0.0 | 0.0 | 0.00 | 0.00 | 0.00 | 82 | 1013.5 |
| 20260508074522 | 66 | 337 | 0.0 | 0.0 | 0.00 | 0.00 | 0.00 | 83 | 1013.7 |
| 20260508074011 | 66 | 337 | 0.0 | 0.0 | 0.00 | 0.00 | 0.00 | 82 | 1013.7 |
| 20260508073507 | 66 | 311 | 0.0 | 0.0 | 0.00 | 0.00 | 0.00 | 83 | 1014.1 |
| 20260508073017 | 66 | 311 | 0.0 | 0.0 | 0.00 | 0.00 | 0.00 | 83 | 1014.1 |
| 20260508072509 | 66 | 311 | 0.0 | 0.0 | 0.00 | 0.00 | 0.00 | 82 | 1014.0 |
| 20260508072005 | 66 | 311 | 0.0 | 0.0 | 0.00 | 0.00 | 0.00 | 83 | 1014.1 |
| 20260508071526 | 66 | 311 | 0.0 | 0.0 | 0.00 | 0.00 | 0.00 | 82 | 1013.9 |
| 20260508071012 | 66 | 311 | 0.0 | 0.0 | 0.00 | 0.00 | 0.00 | 82 | 1013.9 |
| 20260508070503 | 66 | 311 | 0.0 | 0.0 | 0.00 | 0.00 | 0.00 | 82 | 1014.0 |
| 20260508070029 | 66 | 311 | 0.0 | 0.0 | 0.00 | 0.00 | 0.00 | 82 | 1014.0 |
| 20260508065509 | 66 | 311 | 0.0 | 0.0 | 0.00 | 0.00 | 0.00 | 82 | 1014.0 |
| 20260508065007 | 66 | 311 | 0.0 | 0.9 | 0.00 | 0.00 | 0.00 | 83 | 1014.0 |
| 20260508064529 | 66 | 311 | 0.0 | 0.9 | 0.00 | 0.00 | 0.00 | 83 | 1014.1 |
| 20260508064006 | 66 | 339 | 0.0 | 0.9 | 0.00 | 0.00 | 0.00 | 83 | 1014.0 |
| 20260508063514 | 66 | 334 | 0.0 | 0.0 | 0.00 | 0.00 | 0.00 | 83 | 1014.2 |
| 20260508063024 | 65 | 335 | 0.0 | 0.0 | 0.00 | 0.00 | 0.00 | 83 | 1014.4 |
| 20260508062507 | 65 | 334 | 0.0 | 0.0 | 0.00 | 0.00 | 0.00 | 84 | 1014.1 |
| 20260508062011 | 65 | 334 | 0.0 | 0.9 | 0.00 | 0.00 | 0.00 | 84 | 1014.1 |
| 20260508061528 | 65 | 334 | 0.0 | 0.9 | 0.00 | 0.00 | 0.00 | 84 | 1014.5 |
| 20260508061004 | 65 | 334 | 0.0 | 0.9 | 0.00 | 0.00 | 0.00 | 85 | 1014.4 |
| 20260508060516 | 65 | 59 | 0.0 | 0.0 | 0.00 | 0.00 | 0.00 | 85 | 1014.0 |
| 20260508060024 | 65 | 59 | 0.0 | 0.0 | 0.00 | 0.00 | 0.00 | 84 | 1013.9 |
| 20260508055510 | 65 | 59 | 0.0 | 0.0 | 0.00 | 0.00 | 0.00 | 85 | 1013.7 |
| 20260508055009 | 65 | 59 | 0.0 | 0.0 | 0.00 | 0.00 | 0.00 | 85 | 1013.7 |
| 20260508054519 | 65 | 59 | 0.0 | 0.0 | 0.00 | 0.00 | 0.00 | 85 | 1014.0 |
| 20260508054011 | 65 | 59 | 0.0 | 0.0 | 0.00 | 0.00 | 0.00 | 85 | 1014.1 |
| 20260508053510 | 65 | 59 | 0.0 | 0.0 | 0.00 | 0.00 | 0.00 | 85 | 1014.3 |
| 20260508053031 | 65 | 59 | 0.0 | 0.0 | 0.00 | 0.00 | 0.00 | 84 | 1014.2 |
| 20260508052514 | 65 | 60 | 0.0 | 0.0 | 0.00 | 0.00 | 0.00 | 84 | 1013.8 |
| 20260508052008 | 65 | 60 | 0.0 | 0.0 | 0.00 | 0.00 | 0.00 | 84 | 1013.6 |
| 20260508051530 | 65 | 60 | 0.0 | 0.0 | 0.00 | 0.00 | 0.00 | 83 | 1013.6 |
| 20260508051008 | 65 | 58 | 0.0 | 0.0 | 0.00 | 0.00 | 0.00 | 84 | 1013.9 |
| 20260508050507 | 65 | 58 | 0.0 | 0.0 | 0.00 | 0.00 | 0.00 | 83 | 1013.9 |
| 20260508050029 | 65 | 58 | 0.0 | 0.0 | 0.00 | 0.00 | 0.00 | 83 | 1014.0 |
| 20260508045508 | 65 | 58 | 0.0 | 0.0 | 0.00 | 0.00 | 0.00 | 83 | 1013.9 |
| 20260508045011 | 65 | 58 | 0.0 | 0.0 | 0.00 | 0.00 | 0.00 | 82 | 1014.1 |
| 20260508044525 | 65 | 58 | 0.0 | 0.0 | 0.00 | 0.00 | 0.00 | 82 | 1014.0 |
| 20260508044008 | 66 | 58 | 0.0 | 0.0 | 0.00 | 0.00 | 0.00 | 82 | 1013.9 |
| 20260508043510 | 66 | 58 | 0.0 | 0.0 | 0.00 | 0.00 | 0.00 | 83 | 1013.9 |
| 20260508043024 | 66 | 58 | 0.0 | 0.0 | 0.00 | 0.00 | 0.00 | 83 | 1013.9 |
| 20260508042507 | 65 | 58 | 0.0 | 0.0 | 0.00 | 0.00 | 0.00 | 82 | 1014.1 |
| 20260508042010 | 66 | 58 | 0.0 | 0.0 | 0.00 | 0.00 | 0.00 | 82 | 1014.1 |
| 20260508041526 | 66 | 58 | 0.0 | 0.0 | 0.00 | 0.00 | 0.00 | 83 | 1014.0 |
| 20260508041011 | 66 | 58 | 0.0 | 0.9 | 0.00 | 0.00 | 0.00 | 82 | 1014.2 |
| 20260508040507 | 66 | 58 | 0.0 | 0.9 | 0.00 | 0.00 | 0.00 | 82 | 1014.3 |
| 20260508040024 | 66 | 58 | 0.0 | 0.0 | 0.00 | 0.00 | 0.00 | 82 | 1014.3 |
| 20260508035512 | 66 | 58 | 0.0 | 0.0 | 0.00 | 0.00 | 0.00 | 83 | 1014.4 |
| 20260508035009 | 66 | 58 | 0.0 | 0.9 | 0.00 | 0.00 | 0.00 | 83 | 1014.1 |
| 20260508034529 | 66 | 58 | 0.0 | 0.9 | 0.00 | 0.00 | 0.00 | 83 | 1013.9 |
| 20260508034012 | 65 | 58 | 0.0 | 0.0 | 0.00 | 0.00 | 0.00 | 84 | 1013.8 |
| 20260508033507 | 66 | 58 | 0.0 | 0.9 | 0.00 | 0.00 | 0.00 | 84 | 1014.1 |
| 20260508033028 | 66 | 58 | 0.0 | 0.9 | 0.00 | 0.00 | 0.00 | 84 | 1014.0 |
| 20260508032510 | 66 | 58 | 0.0 | 0.9 | 0.00 | 0.00 | 0.00 | 84 | 1013.7 |
| 20260508032009 | 66 | 323 | 0.0 | 0.0 | 0.00 | 0.00 | 0.00 | 83 | 1014.0 |
| 20260508031513 | 66 | 323 | 0.0 | 0.0 | 0.00 | 0.00 | 0.00 | 83 | 1014.0 |
| 20260508031003 | 66 | 323 | 0.0 | 0.0 | 0.00 | 0.00 | 0.00 | 83 | 1014.0 |
| 20260508030506 | 66 | 323 | 0.0 | 0.0 | 0.00 | 0.00 | 0.00 | 82 | 1014.1 |
| 20260508030013 | 66 | 323 | 0.0 | 0.0 | 0.00 | 0.00 | 0.00 | 81 | 1014.1 |
| 20260508025510 | 66 | 323 | 0.0 | 0.0 | 0.00 | 0.00 | 0.00 | 82 | 1014.2 |
| 20260508025006 | 67 | 323 | 0.0 | 0.0 | 0.00 | 0.00 | 0.00 | 81 | 1014.2 |
| 20260508024511 | 67 | 323 | 0.0 | 0.0 | 0.00 | 0.00 | 0.00 | 81 | 1014.4 |
| 20260508024007 | 67 | 323 | 0.0 | 0.0 | 0.00 | 0.00 | 0.00 | 80 | 1014.5 |
| 20260508023504 | 67 | 323 | 0.0 | 1.7 | 0.00 | 0.00 | 0.00 | 80 | 1014.5 |
| 20260508023009 | 67 | 324 | 0.0 | 1.7 | 0.00 | 0.00 | 0.00 | 79 | 1014.6 |
| 20260508022505 | 67 | 323 | 0.0 | 0.9 | 0.00 | 0.00 | 0.00 | 79 | 1014.5 |
| 20260508022006 | 67 | 320 | 0.0 | 0.9 | 0.00 | 0.00 | 0.00 | 80 | 1014.4 |
| 20260508021527 | 67 | 323 | 0.0 | 0.9 | 0.00 | 0.00 | 0.00 | 80 | 1014.2 |
| 20260508021009 | 67 | 329 | 0.0 | 0.9 | 0.00 | 0.00 | 0.00 | 80 | 1014.5 |
| 20260508020503 | 67 | 332 | 0.0 | 0.0 | 0.00 | 0.00 | 0.00 | 81 | 1014.2 |
| 20260508020034 | 67 | 332 | 0.0 | 0.0 | 0.00 | 0.00 | 0.00 | 81 | 1014.3 |
| 20260508015504 | 67 | 333 | 0.0 | 0.9 | 0.00 | 0.00 | 0.00 | 81 | 1014.4 |
| 20260508015003 | 67 | 332 | 0.0 | 0.9 | 0.00 | 0.00 | 0.00 | 81 | 1014.5 |
| 20260508014522 | 68 | 332 | 0.0 | 0.0 | 0.00 | 0.00 | 0.00 | 81 | 1014.4 |
| 20260508014008 | 68 | 333 | 0.0 | 0.0 | 0.00 | 0.00 | 0.00 | 82 | 1014.4 |
| 20260508013511 | 68 | 332 | 0.0 | 0.0 | 0.00 | 0.00 | 0.00 | 81 | 1014.4 |
| 20260508013017 | 68 | 332 | 0.0 | 0.0 | 0.00 | 0.00 | 0.00 | 80 | 1014.5 |
| 20260508012504 | 68 | 332 | 0.0 | 0.0 | 0.00 | 0.00 | 0.00 | 80 | 1014.3 |
| 20260508012007 | 69 | 332 | 0.0 | 0.0 | 0.00 | 0.00 | 0.00 | 80 | 1014.2 |